Regional Weather Roundup
Issued by NWS Green Bay, WI

Home | Current Version | Previous Version | Text Only | Print | Product List | Glossary On
Versions: 1 2 3 4 5 6 7 8 9 10 11 12 13 14 15 16 17 18 19 20 21 22 23 24 25 26 27 28 29 30 31 32 33 34 35 36 37 38 39 40 41 42 43 44 45 46 47 48 49 50
000
ASUS43 KGRB 220511
RWRGRB

NORTH-CENTRAL AND NORTHEAST WISCONSIN REGIONAL WEATHER ROUNDUP
NATIONAL WEATHER SERVICE GREEN BAY WI
1100 PM CST SAT JAN 21 2017

WIZ005-009-010>012-018-019-220600-
NORTH CENTRAL WISCONSIN

CITY           SKY/WX    TMP DP  RH WIND       PRES   REMARKS
IRONWOOD       FOG       35  34  96 CALM      29.51S VSB 1
MANITOWISH WTR FOG       34  34 100 CALM      29.50R VSB 1/2
ARBOR VITAE    FOG       37  36  97 CALM      29.50R VSB 1/2
EAGLE RIVER    FOG       34  34 100 CALM      29.49S VSB 1/2
LAND O LAKES   FOG       35  35 100 CALM      29.51S VSB 3/4
RHINELANDER    FOG       35  35 100 CALM      29.49F VSB 1/4
PHILLIPS       FOG       34  34 100 CALM      29.50R VSB 3/4
ANTIGO         FOG       33  33 100 CALM      29.51S VSB 1/2
TOMAHAWK       FOG       33  33  97 CALM      29.51R VSB 1/2
MERRILL        FOG       34  34 100 CALM        N/A  VSB 1/4
$$

WIZ013-073-220600-
NORTHEAST WISCONSIN

CITY           SKY/WX    TMP DP  RH WIND       PRES   REMARKS
IRON MOUNTAIN  FOG       34  32  92 CALM      29.50S VSB 1/4
MARINETTE      NOT AVBL
OCONTO         CLOUDY    34  34  99 CALM      29.54S
$$

WIZ017-030-035>037-045-220600-
CENTRAL WISCONSIN

CITY           SKY/WX    TMP DP  RH WIND       PRES   REMARKS
MEDFORD        FOG       33  33  99 CALM      29.50R VSB 1/4
WAUSAU         FOG       35  35 100 CALM      29.51R VSB 1/4
MOSINEE        FOG       34  34 100 S5        29.53R VSB 1/4
MARSHFIELD     FOG       36  35  96 SW3       29.51R VSB 1/4
WISC RAPIDS    FOG       38  38 100 SW6       29.54R VSB 1/4
STEVENS POINT  FOG       36  36 100 S7        29.53S VSB 1/4
WAUPACA        FOG       36  35  96 CALM      29.55R VSB 1/2
SHAWANO        FOG       36  35  96 CALM      29.54S VSB 1/2
CLINTONVILLE   FOG       34  34 100 CALM      29.54R VSB 1/2
WAUTOMA        FOG       35  34  96 CALM      29.56R VSB 1/4
$$

WIZ038-039-048-051-220600-
FOX VALLEY

CITY           SKY/WX    TMP DP  RH WIND       PRES   REMARKS
NWS GREEN BAY  FOG       37  37 100 SE3       29.54S VSB 1/4
APPLETON       FOG       34  34 100 S6        29.54R VSB 1/2
OSHKOSH        CLOUDY    39  38  96 SW6       29.55R FOG
FOND DU LAC    CLOUDY    39  37  92 S6        29.56S
$$

WIZ022-050-052-220600-
EAST CENTRAL WISCONSIN

CITY           SKY/WX    TMP DP  RH WIND       PRES   REMARKS
EPHRAIM        FOG       37  37 100 SW5       29.52S VSB 1/4
WASHINGTON ISL FOG       38  38 100 SW5       29.53R VSB 1/4
STURGEON BAY   CLOUDY    39  37  93 W6        29.55R FOG
MANITOWOC      FOG       40  39  97 MISG      29.57R VSB 1/2
SHEBOYGAN      CLOUDY    41  39  93 SW8       29.57R
$$

LMZ563-521-522-541>543-220600-
LAKESHORE

STATION/POSITION TIME  TEMP    WIND        PRES    VSBY  WAVE
                       AIR SEA DIR/SP/G                  HT/PER
                 (UTC) (F)     (DEG/KT/KT) (MB)    (MI)  (FT/S)
SHEBOYGAN LKSHOR 0500   44     240/  7/  8 1001.4R
KEWAUNEE LKSHORE 0448   36     170/  3/  5 1000.4R
NORTHPORT PIER   0440   38        CALM     1000.3R
SISTER BAY LKSHO 0450   39     240/ 10/ 12   N/A
MENOMINEE LKSHOR 0448          240/  7/  8  999.7R
$$




USA.gov is the U.S. government's official web portal to all federal, state and local government web resources and services.